Weather History for Rochelle, IL

Change the Weather History Date:

Sunday, June 29, 2014

  Actual Average (KRFD) Record (KRFD)
Temperature  
Mean Temperature 74 °F 73 °F  
Max Temperature 82 °F 84 °F 103 °F (1931)
Min Temperature 65 °F 62 °F 42 °F (1923)
Degree Days  
Heating Degree Days 0 0  
Month to date heating degree days 29  
Since 1 June heating degree days 29  
Since 1 July heating degree days 6567  
Cooling Degree Days 8 8  
Month to date cooling degree days 166  
Year to date cooling degree days 221  
Since 1 June cooling degree days 166  
Growing Degree Days 24 (Base 50)    
Moisture  
Dew Point 68 °F    
Average Humidity 82    
Maximum Humidity 96    
Minimum Humidity 66    
Precipitation  
Precipitation 0.27 in 0.13 in 2.16 in (1990)
Month to date precipitation 4.52  
Year to date precipitation 16.99  
Snow  
Snow 0.00 in 0.00 in 0.00 in ()
Month to date snowfall 0.0  
Since 1 June snowfall 0.0  
Since 1 July snowfall 36.7  
Snow Depth -    
Sea Level Pressure  
Sea Level Pressure 29.92 in    
Wind  
Wind Speed 11 mph (SSW)    
Max Wind Speed 23 mph    
Max Gust Speed 31 mph    
Visibility 10 miles    
Events Rain , Thunderstorm    
T = Trace of Precipitation, MM = Missing Value Source: NWS Daily Summary

Daily Weather History Graph

Daily Weather History Graph

Search for Another Location

Airport:

Trip Planner

Search our weather history database for the weather conditions in past years. The results will help you decide how hot, cold, wet, or windy it might be!

Date:

Astronomy

Jun. 29, 2014 Rise Set
Actual Time 5:23 AM CDT 8:35 PM CDT
Civil Twilight 4:49 AM CDT 9:09 PM CDT
Nautical Twilight 4:05 AM CDT 9:53 PM CDT
Astronomical Twilight 3:12 AM CDT 10:46 PM CDT
Moon 7:44 AM CDT 9:52 PM CDT
Length of Visible Light 16h 20m
Length of Day
15h 11m
Waxing Crescent, 5% of the Moon is Illuminated
Jun 29
Waxing Crescent
Jul 5
First Quarter
Jul 12
Full
Jul 18
Last Quarter
Jul 26
New

Hourly Weather History & Observations

Time (CDT) Temp. Heat Index Dew Point Humidity Pressure Visibility Wind Dir Wind Speed Gust Speed Precip Events Conditions
12:15 AM 74.3 °F - 68.9 °F 83% 29.90 in 10.0 mi South 11.5 mph 17.3 mph N/A   Clear
12:35 AM 74.3 °F - 68.9 °F 83% 29.89 in 10.0 mi SSE 13.8 mph 18.4 mph N/A   Clear
12:55 AM 74.3 °F - 68.9 °F 83% 29.90 in 10.0 mi South 12.7 mph - N/A   Scattered Clouds
1:15 AM 74.5 °F - 68.9 °F 83% 29.90 in 10.0 mi South 15.0 mph 19.6 mph N/A   Mostly Cloudy
1:35 AM 74.5 °F - 68.9 °F 83% 29.89 in 10.0 mi South 12.7 mph - N/A   Mostly Cloudy
1:55 AM 74.7 °F - 68.9 °F 82% 29.89 in 10.0 mi South 17.3 mph 20.7 mph N/A   Scattered Clouds
2:15 AM 75.2 °F - 68.9 °F 81% 29.89 in 10.0 mi South 23.0 mph 31.1 mph 0.02 in Thunderstorm Mostly Cloudy
2:35 AM 69.3 °F - 66.9 °F 92% 29.92 in 3.0 mi WSW 13.8 mph - 0.13 in Rain , Thunderstorm Heavy Thunderstorms and Rain
2:55 AM 68.4 °F - 66.6 °F 94% 29.91 in 7.0 mi West 8.1 mph - 0.25 in Rain , Thunderstorm Light Thunderstorms and Rain
3:15 AM 67.8 °F - 66.2 °F 95% 29.92 in 7.0 mi West 6.9 mph - 0.02 in Rain Light Rain
3:35 AM 67.5 °F - 65.8 °F 95% 29.92 in 10.0 mi WSW 3.5 mph - 0.02 in Rain Light Rain
3:55 AM 67.5 °F - 65.8 °F 95% 29.91 in 10.0 mi WSW 4.6 mph - 0.02 in   Overcast
4:15 AM 67.1 °F - 65.7 °F 95% 29.89 in 10.0 mi SW 5.8 mph - N/A   Scattered Clouds
4:35 AM 67.1 °F - 65.3 °F 94% 29.90 in 10.0 mi WSW 6.9 mph - N/A   Clear
4:55 AM 66.4 °F - 64.8 °F 95% 29.91 in 10.0 mi SW 5.8 mph - N/A   Clear
5:35 AM 65.7 °F - 64.4 °F 96% 29.91 in 10.0 mi SW 5.8 mph - N/A   Clear
5:55 AM 66.6 °F - 65.3 °F 96% 29.92 in 10.0 mi WSW 10.4 mph - N/A   Mostly Cloudy
6:15 AM 67.1 °F - 65.5 °F 95% 29.92 in 10.0 mi WSW 10.4 mph 17.3 mph N/A   Overcast
6:35 AM 67.5 °F - 65.5 °F 93% 29.93 in 10.0 mi SW 9.2 mph - N/A   Unknown
6:55 AM 68.0 °F - 65.7 °F 92% 29.94 in 10.0 mi SW 10.4 mph 16.1 mph N/A   Mostly Cloudy
7:15 AM 68.2 °F - 65.7 °F 92% 29.94 in 10.0 mi SW 12.7 mph - N/A   Mostly Cloudy
7:35 AM 68.9 °F - 66.2 °F 91% 29.94 in 10.0 mi SW 9.2 mph - N/A   Mostly Cloudy
7:55 AM 69.1 °F - 65.3 °F 88% 29.95 in 10.0 mi SW 12.7 mph 16.1 mph N/A   Overcast
8:15 AM 69.1 °F - 65.3 °F 88% 29.96 in 10.0 mi WSW 12.7 mph - N/A   Overcast
8:35 AM 69.4 °F - 65.5 °F 87% 29.97 in 10.0 mi SW 10.4 mph - N/A   Overcast
8:55 AM 70.0 °F - 65.7 °F 86% 29.98 in 10.0 mi WSW 9.2 mph - N/A   Overcast
9:15 AM 70.2 °F - 65.7 °F 86% 29.98 in 10.0 mi SW 8.1 mph - N/A   Overcast
9:35 AM 71.6 °F - 66.2 °F 83% 29.98 in 10.0 mi WSW 9.2 mph - N/A   Overcast
9:55 AM 72.1 °F - 66.6 °F 83% 29.97 in 10.0 mi SW 9.2 mph - N/A   Overcast
10:15 AM 72.5 °F - 66.2 °F 81% 29.98 in 10.0 mi SW 10.4 mph - N/A   Overcast
10:35 AM 72.9 °F - 66.6 °F 81% 29.99 in 10.0 mi SW 11.5 mph - N/A   Overcast
10:55 AM 73.4 °F - 66.6 °F 79% 30.00 in 10.0 mi SW 10.4 mph - N/A   Overcast
11:35 AM 75.9 °F - 67.5 °F 75% 30.00 in 10.0 mi SW 12.7 mph - N/A   Overcast
11:55 AM 75.4 °F - 66.9 °F 75% 30.01 in 10.0 mi WSW 8.1 mph - N/A   Overcast
12:15 PM 77.7 °F - 67.6 °F 71% 30.01 in 10.0 mi WSW 9.2 mph - N/A   Mostly Cloudy
12:35 PM 77.5 °F - 67.5 °F 71% 30.00 in 10.0 mi WSW 8.1 mph - N/A   Scattered Clouds
12:55 PM 77.7 °F - 68.4 °F 73% 30.01 in 10.0 mi WSW 11.5 mph - N/A   Mostly Cloudy
1:15 PM 78.3 °F - 67.6 °F 70% 30.00 in 10.0 mi SW 12.7 mph - N/A   Mostly Cloudy
1:35 PM 78.3 °F - 68.0 °F 71% 29.99 in 10.0 mi SW 8.1 mph - N/A   Mostly Cloudy
1:55 PM 78.8 °F - 67.8 °F 69% 29.98 in 10.0 mi SW 11.5 mph - N/A   Mostly Cloudy
2:15 PM 79.3 °F - 69.3 °F 71% 29.97 in 10.0 mi WSW 9.2 mph - N/A   Mostly Cloudy
2:35 PM 79.5 °F - 69.3 °F 71% 29.96 in 10.0 mi SSW 8.1 mph - N/A   Scattered Clouds
2:55 PM 79.9 °F - 68.7 °F 69% 29.95 in 10.0 mi WSW 10.4 mph - N/A   Scattered Clouds
3:15 PM 81.0 °F 84.1 °F 69.3 °F 67% 29.94 in 10.0 mi WSW 8.1 mph - N/A   Scattered Clouds
3:35 PM 81.5 °F 85.1 °F 70.0 °F 68% 29.93 in 10.0 mi SSW 8.1 mph - N/A   Scattered Clouds
3:55 PM 81.7 °F 85.4 °F 70.2 °F 68% 29.92 in 10.0 mi South 11.5 mph 17.3 mph N/A   Scattered Clouds
4:15 PM 81.9 °F 86.2 °F 71.1 °F 70% 29.91 in 10.0 mi South 13.8 mph 18.4 mph N/A   Scattered Clouds
4:35 PM 82.4 °F 86.3 °F 70.0 °F 66% 29.91 in 10.0 mi South 12.7 mph 17.3 mph N/A   Scattered Clouds
4:55 PM 82.6 °F 86.6 °F 70.3 °F 66% 29.91 in 10.0 mi SSW 15.0 mph 18.4 mph N/A   Scattered Clouds
5:15 PM 82.4 °F 86.3 °F 70.2 °F 66% 29.90 in 10.0 mi SSW 12.7 mph 18.4 mph N/A   Mostly Cloudy
5:35 PM 82.4 °F 86.3 °F 70.2 °F 66% 29.89 in 10.0 mi SSW 12.7 mph 18.4 mph N/A   Scattered Clouds
5:55 PM 82.2 °F 86.4 °F 70.7 °F 68% 29.89 in 10.0 mi South 10.4 mph - N/A   Scattered Clouds
6:15 PM 81.9 °F 86.2 °F 71.1 °F 70% 29.87 in 10.0 mi South 16.1 mph - N/A   Clear
6:35 PM 81.5 °F 85.5 °F 70.7 °F 70% 29.87 in 10.0 mi South 13.8 mph 17.3 mph N/A   Clear
6:55 PM 81.1 °F 85.0 °F 71.1 °F 71% 29.88 in 10.0 mi SSW 11.5 mph - N/A   Clear
7:15 PM 80.2 °F 83.7 °F 70.7 °F 73% 29.87 in 10.0 mi South 12.7 mph 16.1 mph N/A   Clear
7:35 PM 79.0 °F - 70.9 °F 76% 29.88 in 10.0 mi SSW 10.4 mph - N/A   Clear
7:55 PM 78.3 °F - 70.9 °F 78% 29.87 in 10.0 mi South 9.2 mph - N/A   Clear
8:15 PM 76.6 °F - 70.9 °F 82% 29.86 in 10.0 mi South 8.1 mph - N/A   Clear
8:35 PM 75.0 °F - 71.1 °F 87% 29.86 in 10.0 mi South 5.8 mph - N/A   Clear
8:55 PM 74.5 °F - 71.2 °F 90% 29.86 in 10.0 mi South 6.9 mph - N/A   Clear
9:15 PM 74.3 °F - 71.1 °F 90% 29.86 in 7.0 mi South 5.8 mph - N/A   Clear
9:35 PM 74.1 °F - 70.9 °F 90% 29.86 in 7.0 mi SSE 6.9 mph - N/A   Clear
9:55 PM 73.8 °F - 71.2 °F 92% 29.86 in 7.0 mi South 8.1 mph - N/A   Clear
10:15 PM 74.5 °F - 71.8 °F 91% 29.85 in 7.0 mi South 10.4 mph - N/A   Scattered Clouds
10:35 PM 75.0 °F - 72.3 °F 91% 29.85 in 7.0 mi South 11.5 mph - N/A   Scattered Clouds
10:55 PM 75.2 °F - 72.5 °F 91% 29.86 in 7.0 mi South 11.5 mph - N/A   Mostly Cloudy
11:15 PM 75.6 °F - 72.5 °F 90% 29.86 in 10.0 mi South 13.8 mph 17.3 mph N/A   Mostly Cloudy
11:35 PM 75.6 °F - 72.5 °F 90% 29.85 in 10.0 mi South 13.8 mph 18.4 mph N/A Thunderstorm Scattered Clouds
11:55 PM 75.4 °F - 72.5 °F 91% 29.84 in 7.0 mi South 11.5 mph - N/A Thunderstorm Scattered Clouds